Location: Stoke Bliss
(52.2667°N, 2.5167°W)
Time: 12:37:47
(UTC+00:00)

Cosmos 1898 Rocket - Visible Passes

Search period start: 12 June 2021 00:00
Search period end: 22 June 2021 00:00
Orbit: 753 x 784 km, 74.0° (Epoch: 11 June)

Date Brightness Start Highest point End Pass type
(mag) Time Alt. Az. Time Alt. Az. Time Alt. Az.
12 Jun 6.1 00:16:08 10° N 00:19:44 18° NE 00:23:18 10° E visible
12 Jun 3.8 01:57:31 10° NNW 02:02:49 72° ENE 02:08:01 10° SSE visible
12 Jun 6.3 23:39:39 10° N 23:42:18 14° NNE 23:44:56 10° ENE visible
13 Jun 4.5 01:20:39 10° NNW 01:25:47 48° ENE 01:30:50 10° SE visible
13 Jun 6.5 23:03:43 10° NNE 23:04:47 11° NNE 23:05:52 10° NE visible
14 Jun 5.1 00:43:51 10° NNW 00:48:39 33° NE 00:53:22 10° ESE visible
14 Jun 3.8 02:25:52 10° NNW 02:30:57 49° WSW 02:35:57 10° S visible
15 Jun 5.6 00:07:08 10° N 00:11:24 24° NE 00:15:38 10° E visible
15 Jun 3.5 01:48:49 10° NNW 01:54:06 77° WSW 01:59:19 10° SSE visible
15 Jun 6.0 23:30:31 10° N 23:34:04 18° NE 23:37:37 10° E visible
16 Jun 3.7 01:11:53 10° NNW 01:17:10 71° ENE 01:22:22 10° SSE visible
16 Jun 4.9 02:54:51 10° NW 02:58:42 21° W 03:02:31 10° SW visible
16 Jun 6.1 22:54:03 10° N 22:56:39 14° NNE 22:59:14 10° ENE visible
17 Jun 4.4 00:35:01 10° NNW 00:40:08 48° ENE 00:45:10 10° SE visible
17 Jun 4.4 02:17:25 10° NW 02:22:03 32° WSW 02:26:37 10° SSW visible
17 Jun 6.4 22:18:11 10° NNE 22:19:08 10° NNE 22:20:04 10° NE visible
17 Jun 5.0 23:58:14 10° NNW 00:03:00 33° NE 00:07:42 10° ESE visible
18 Jun 3.8 01:40:14 10° NNW 01:45:18 50° WSW 01:49:44 13° S visible
18 Jun 5.5 23:21:31 10° N 23:25:46 24° NE 23:29:57 10° E visible
19 Jun 3.5 01:03:11 10° NNW 01:08:27 78° WSW 01:12:55 14° SSE visible
19 Jun 5.4 02:47:11 10° WNW 02:49:37 13° W 02:52:03 10° WSW visible
19 Jun 5.9 22:44:54 10° N 22:48:25 18° NE 22:51:55 10° E visible
20 Jun 3.7 00:26:15 10° NNW 00:31:31 70° ENE 00:36:11 13° SE visible
20 Jun 4.9 02:09:12 10° NW 02:13:04 21° W 02:16:25 12° SW visible
20 Jun 6.0 22:08:27 10° N 22:10:59 13° NNE 22:13:31 10° ENE visible
20 Jun 4.3 23:49:23 10° NNW 23:54:29 47° ENE 23:59:29 10° SE visible
21 Jun 4.4 01:31:46 10° NW 01:36:25 33° WSW 01:39:43 17° SSW visible
21 Jun 6.3 21:32:41 10° NNE 21:33:28 10° NNE 21:34:15 10° NE visible
21 Jun 4.9 23:12:36 10° NNW 23:17:20 33° NE 23:22:01 10° ESE visible
